sat.trackr.live / text

‹ back to catalog

STARLINK-34700

NORAD 64922 · 2025-157U

PAYLOAD ACTIVE UNKNOWN

§ Identity

Operator
Country
US
Launch date
2025-07-26
Launch site
AFETR
Launch vehicle
Mass (kg)
RCS (m²)

Purposes: comms

External: N2YO · Heavens-Above · Gunter

§ Orbital elements

Epoch: 2026-05-24T23:18:36.739584Z

Period
94.11 min
Inclination
53.1609°
Eccentricity
0.0000918
Mean motion
15.30204566 rev/d
Perigee alt
474.6 km
Apogee alt
475.8 km
Semi-major
6,853.3 km
B*
7.3482e-4
RAAN
351.2868°
Arg perigee
74.9588°
Mean anomaly
285.1514°
Rev number
4,775

§ Raw data

STARLINK-347001 64922U 25157U   26144.97125856  .00021470  00000+0  73482-3 0  99932 64922  53.1609 351.2868 0000918  74.9588 285.1514 15.30204566 47752

JSON: /api/v1/satellites/64922 · /tle

For live sub-satellite position, see the globe view (requires WebGL).

§ Visibility from observer

Set your observer location to see the next 7 days of passes ≥ 10°. The values pass through the URL so the page stays shareable.

No JS? Fill the form by hand. The geolocation button needs JavaScript.